Location: *
(58.4167°N, 22.5000°E)
Time: 01:14:13
(UTC+00:00)

Terra - Pass Details

Date: 22 September 2019
Orbit: 701 x 704 km, 98.2° (Epoch: 20 October)

Event Time Altitude Azimuth Distance (km) Brightness Sun altitude
Exits shadow 19:42:49 62° 88° (E) 798 1.8 -23.5°
Maximum altitude 19:43:06 63° 68° (ENE) 788 1.9 -23.5°
Drops below altitude 10° 19:47:50 10° 348° (NNW) 2,186 5.1 -23.9°
Sets 19:50:07 0° 345° (NNW) 3,108 6.2 -24.1°
